Location: Brunembert
(50.7122°N, 1.8935°E)
Time: 04:29:36
(UTC+00:00)

Cosmos 1455 - Pass Details

Date: 22 April 2021
Orbit: 497 x 521 km, 82.5° (Epoch: 06 May)

Event Time Altitude Azimuth Distance (km) Brightness Sun altitude
Rises 19:42:01 0° 196° (SSW) 2,586 5.6 -7.0°
Reaches altitude 10° 19:44:09 10° 200° (SSW) 1,704 4.7 -7.2°
Maximum altitude 19:47:51 64° 282° (WNW) 559 2.7 -7.7°
Drops below altitude 10° 19:51:34 10° 5° (N) 1,713 5.2 -8.3°
Sets 19:53:43 0° 8° (N) 2,601 6.1 -8.5°
